Погода в Верхнедвинске

Погода в Верхнедвинске : погода сейчас, прогноз погоды и архив. Всё, что Вы хотите узнать о погоде в Верхнедвинске!

Хотите узнать прогноз погоды в Верхнедвинске? Тогда Вам сюда: Погода в Верхнедвинске

Поиск расширенной информации на нашем сайте:

Другие новости

Новости СМИ2

Главная страница сайта

Новости сайта

02.10.2013

Напоминаем, что на нашем новом сайте вы можете получить высокодетализированные прогнозы погоды по пунктам России, СНГ и мира (включающие важные для авиации метеовеличины, такие как направление и скорость ветра, видимость, явления погоды, количество и форма облачности, нижняя и верхняя граница облачности), а также ознакомиться с разнообразными материалами по авиационной метеорологии и подборкой полезных ссылок на эту тему.

Сайт Метеоцентр.Азия посвящён разработке технологий оптимизации авиаметеорологического обслуживания, включая проектирование и перспективное создание нескольких автоматизированных авиаметеорологических систем:
- система выпуска высокодетальных прогностических карт явлений погоды для нижнего воздушного пространства по России и ближнему зарубежью;
- система верификации прогнозов TAF (выпускаемых синоптиками официальных АМСГ РФ и ближнего зарубежья) и AUTOTAF (выпускаемых сайтом Метеоцентр.Азия) - выявление ошибок, онлайн-сопоставление с фактической погодой METAR, автоматическое внесение коррективов в прогнозы при резком отклонении фактической погоды от прогноза, подсчёт оправдываемости прогнозов по элементам и в целом;
- система обработки, анализа и отображения авиаметеорологической информации для применения провайдерами метеорологической информации.


Погода в Верхнедвинске - сегодня

Время (UTC), дата Ветер
(°,м/с) 
Видим.   Явления Облачность Т
(°С)
Тd
(°С)
f(%) Тe
(°С)
Pmin
(гПа)
dP
(гПа)
Po
(мм)
O2
(г/м3)
Тmin Tmax R s Состояние
почвы
21 20.05.17 360 (С) 12000 м    9/0 средняя 
[Ac trans]
+17.4 +13.7 79 +25  1012.5  -0.1  748  280           
00 21.05.17 030 (СВ) 12000 м    4/0 средняя 
[Ac trans]
+14.7 +10.2 74 +16  1012.7  748  284           
03 21.05.17 050 (СВ) 15000 м    9/0 средняя 
[Ac trans]
+13.4 +9.5 77 +14  1013.7  0.8  748  286           
09 21.05.17 030 (СВ) 4{10}  15000 м    3/1 600 м верхняя 
[Cu hum|Ci fib]
+16 +5.9 51 +16  1015.2  0.9  750  284           
15 21.05.17 340 (С) 5-10  15000 м    ясно 
+18.7 +1.5 32 +19  1014.7  -0.3  749  282           
21 21.05.17 290 (З) 10 км    ясно 
+10.1 +5 71 +11  1016.3  0.6  750  291           
00 22.05.17 290 (З) 10 км    ясно 
+6.7 +5.6 93 +8  1016.8  0.3  750  294           
03 22.05.17 250 (З) 7000 м  дымка  1/0 верхняя 
[Ci fib]
+5.7 +5 95 +7  1016.9  750  295           
06 22.05.17 260 (З) 10 км    4/0 средняя 
[Ac trans]
+15.7 +5.9 52 +16  1016.1  -0.3  750  285  +5.1         
09 22.05.17 240 (ЮЗ) 15000 м    9/0 средняя 
[Ac trans]
+16.8 +7.1 53 +18  1015.6  -0.3  750  284           
15 22.05.17 270 (З) 20000 м    6/4 600 м верхняя 
[Cu hum|Ci fib]
+18.5 +10.5 60 +21  1014.2  -1.2  749  281      0.6     
18 22.05.17 180 (Ю) 15000 м    10/0 средняя, верхняя 
[Ac trans|Cs]
+16.4 +9.3 63 +18  1013.2  -1.1  748  283    +19.4  0.6     
21 22.05.17 260 (З) 12000 м    8/0 верхняя 
[Ci fib]
+12.8 +7.4 70 +13  1013.5  748  287           
00 23.05.17 260 (З) 10 км    6/0 верхняя 
[Ci fib]
+9.4 +5.5 77 +10  1014.1  0.4  749  291           
03 23.05.17 270 (З) 10 км    10/0 средняя, верхняя 
[Ac trans|Cs]
+7.6 +5.3 85 +8  1014.4  0.2  749  293           
06 23.05.17 280 (З) 15000 м    6/0 верхняя 
[Ci fib]
+12 +6.8 70 +12  1014.5  0.4  749  288  +7.5         
09 23.05.17 290 (З) 20000 м    3/0 верхняя 
[Ci fib]
+17.1 +4.6 44 +18  1013.7  -0.5  749  283           
12 23.05.17 290 (З) 20000 м    3/1 600 м верхняя 
[Cu hum|Ci fib]
+19.4 +3.6 35 +20  1012.7  -0.9  748  281           
15 23.05.17 260 (З) 20000 м    3/3 600 м 
[Sc]
+19 +4.6 39 +20  1011.7  -1  747  281           
18 23.05.17 210 (ЮЗ) 20000 м    4/0 верхняя 
[Ci fib]
+16.2 +6.4 52 +18  1011.4  -0.4  747  283    +20.4       
21 23.05.17 220 (ЮЗ) 15000 м    8/0 средняя, верхняя 
[Ac trans|Ci fib]
+12.4 +5.3 62 +14  1011.6  747  287           
00 24.05.17 300 (СЗ) 12000 м    10/0 средняя 
[As trans]
+10.7 +7.6 81 +12  1011.6  -0.1  747  288           
09 24.05.17 280 (З) 20000 м    6/6 600 м 
[Cu med, cong]
+14.9 +5.5 53 +15  1011.8  0.1  747  285           
21 24.05.17 320 (СЗ) 15000 м    9/3 600 м кучево-дожд., средняя 
[Cb cap|Ac trans]
+11 +7.4 78 +12  1011.7  -0.4  747  288           
03 25.05.17 300 (СЗ) 6000 м  дымка  1/0 средняя 
[Ac trans]
+7.4 +7 97 +7  1012.5  0.3  747  292         
Время (UTC), дата Ветер
(°,м/с) 
Видим.   Явления Облачность Т
(°С)
Тd
(°С)
f(%) Тe
(°С)
Pmin
(гПа)
dP
(гПа)
Po
(мм)
O2
(г/м3)
Тmin Tmax R s Состояние
почвы

Для получения пояснительной информации подведите курсор к названию столбца.

ПОГОДА в Верхнедвинске - архив

Всё, что Вы хотите узнать о погоде в Верхнедвинске - удобно и подробно!

Выберите нужную дату (начиная с 1 января 2015* года) и нажмите кнопку "Найти".
Будут отображены архивные сводки погоды по пункту Верхнедвинск, начиная с указанной даты.


Отображать данные в формате CSV (для использования в таблицах Excel)


Внимание! Наш архив погоды предназначен исключительно для личного некоммерческого использования в познавательных целях. Если Вам необходимы официальные справки о состоянии погоды (для производственных, юридических, коммерческих и т.п. целей), обращайтесь в органы Росгидромета.

*Примечание: данная дата относится к архиву по метеостанциям СССР (Россия, СНГ, Балтия).
Архив по метеостанциям Зарубежной Европы и Азии (кроме Китая) хранится 10 дней, по другим регионам земного шара (Китай, Африка, Америка, Австралия, Океания) - 1 день.

Верхнедвинск - район местоположения метеостанции


Название, широта, долгота, высота метеостанции:
Верхнедвинск 55.8°ш. 27.9°д. 132 м над ур. моря [Беларусь]

Дополнительная информация

В oтличие oт бoльшинства пoгoдных сайтoв мы публикуем пoдрoбную метеoинфoрмацию в детальнoм прoфессиoнальнoм фoрмате.

Характеристики температуры и влажнoсти вoздуха измеряются на высoте 2 м в тени вдали oт зданий и деревьев.
Скoрoсть ветра измеряется на высoте 10 м (на урoвне рoста челoвека скoрoсть ветра ниже в 1.5-2 раза). Если метеoстанция нахoдится в гoрoде или в лесу, тo скoрoсть ветра занижена на 2-4 м/с пo сравнению с oткрытым местoм. Скoрoсть ветра над акватoриями крупных рек и oзёр, а также на вершинах хoлмoв на 2-5 м/с выше, чем в oбычных услoвиях.
Атмoсфернoе давление в разных тoчках местнoсти мoжет значительнo oтличаться oт давления на метеoстанции, в зависимoсти oт услoвий рельефа (при пoдъёме на 10 м давление пoнижается примернo на 1 мм рт.ст.).